When you browse on this site, cookies collect data to enhance your experience and personalize the content and advertising you see.
Visit our Privacy Policy to learn more. By continuing to use the site, you agree to this use of cookies and data.
  • In Austria
  • List of Countries
  • For 7 days
  • Water Temperature
  • Weather Map
  • News
  • Weather Widgets
  • user-avatar
    Login

    Hourly Weather Zenica

    Today, 25 February, Tuesday

    Time Temperature Precipitation Wind Pressure Humidity
    00:00 +3°C° 0 mm 2 mps 676 mmHg 80%
    01:00 +3°C° 0 mm 2 mps 676 mmHg 78%
    02:00 +3°C° 0 mm 2 mps 675 mmHg 79%
    03:00 +3°C° 0 mm 2 mps 675 mmHg 81%
    04:00 +3°C° 0 mm 2 mps 674 mmHg 83%
    05:00 +3°C° 0 mm 2 mps 674 mmHg 83%
    06:00 +3°C° 0 mm 2 mps 674 mmHg 84%
    07:00 +3°C° 0 mm 2 mps 674 mmHg 82%
    08:00 +5°C° 0 mm 2 mps 674 mmHg 76%
    09:00 +7°C° 0 mm 3 mps 674 mmHg 70%
    10:00 +9°C° 0 mm 3 mps 674 mmHg 64%
    11:00 +10°C° 0 mm 3 mps 674 mmHg 61%
    12:00 +11°C° 0 mm 3 mps 674 mmHg 59%
    13:00 +13°C° 0 mm 2 mps 674 mmHg 55%
    14:00 +11°C° 0 mm 3 mps 673 mmHg 59%
    15:00 +11°C° 0 mm 3 mps 672 mmHg 62%
    16:00 +10°C° 0 mm 3 mps 671 mmHg 66%
    17:00 +8°C° 0 mm 3 mps 671 mmHg 73%
    18:00 +7°C° 0 mm 3 mps 671 mmHg 80%
    19:00 +4°C° 0 mm 3 mps 670 mmHg 87%
    20:00 +4°C° 0 mm 3 mps 670 mmHg 88%
    21:00 +4°C° 0 mm 3 mps 670 mmHg 89%
    22:00 +4°C° 0 mm 3 mps 670 mmHg 90%
    23:00 +4°C° 0 mm 3 mps 669 mmHg 90%

    Tomorrow, 26 February, Wednesday

    Time Temperature Precipitation Wind Pressure Humidity
    00:00 +4°C° 0 mm 3 mps 669 mmHg 90%
    01:00 +4°C° 0 mm 3 mps 668 mmHg 90%
    02:00 +4°C° 0 mm 3 mps 667 mmHg 90%
    03:00 +4°C° 0 mm 3 mps 667 mmHg 89%
    04:00 +4°C° 0 mm 3 mps 666 mmHg 88%
    05:00 +4°C° 0 mm 3 mps 665 mmHg 89%
    06:00 +3°C° 0 mm 3 mps 665 mmHg 89%
    07:00 +3°C° 0 mm 3 mps 665 mmHg 90%
    08:00 +3°C° 0 mm 5 mps 665 mmHg 84%
    09:00 +4°C° 0 mm 6 mps 665 mmHg 78%
    10:00 +5°C° 0 mm 7 mps 665 mmHg 72%
    11:00 +6°C° 0.1 mm 7 mps 665 mmHg 69%
    12:00 +7°C° 0.1 mm 6 mps 664 mmHg 66%
    13:00 +8°C° 0.1 mm 6 mps 664 mmHg 63%
    14:00 +7°C° 0.4 mm 6 mps 664 mmHg 66%
    15:00 +5°C° 0.4 mm 6 mps 663 mmHg 69%
    16:00 +5°C° 0.4 mm 6 mps 663 mmHg 72%
    17:00 +4°C° 1 mm 4 mps 663 mmHg 78%
    18:00 +3°C° 1 mm 3 mps 663 mmHg 83%
    19:00 +3°C° 1 mm 2 mps 663 mmHg 89%
    20:00 +2°C° 0.8 mm 2 mps 663 mmHg 90%
    21:00 +1°C° 0.8 mm 2 mps 663 mmHg 92%
    22:00 +1°C° 0.8 mm 2 mps 663 mmHg 93%
    23:00 -1°C° 1.9 mm 2 mps 663 mmHg 94%

    Day after tomorrow, 27 February, Thursday

    Time Temperature Precipitation Wind Pressure Humidity
    00:00 -2°C° 1.9 mm 2 mps 663 mmHg 95%
    01:00 -3°C° 1.9 mm 2 mps 664 mmHg 96%
    02:00 -3°C° 0.6 mm 2 mps 664 mmHg 95%
    03:00 -4°C° 0.6 mm 2 mps 665 mmHg 95%
    04:00 -4°C° 0.6 mm 2 mps 665 mmHg 95%
    05:00 -4°C° 0.4 mm 2 mps 666 mmHg 95%
    06:00 -4°C° 0.4 mm 2 mps 667 mmHg 95%
    07:00 -4°C° 0.4 mm 2 mps 668 mmHg 94%
    08:00 -3°C° 0 mm 2 mps 669 mmHg 87%
    09:00 -2°C° 0 mm 3 mps 670 mmHg 80%
    10:00 -1°C° 0 mm 3 mps 671 mmHg 72%
    11:00 0°C° 0 mm 3 mps 671 mmHg 69%
    12:00 +1°C° 0 mm 2 mps 672 mmHg 66%
    13:00 +2°C° 0 mm 2 mps 672 mmHg 62%
    14:00 +2°C° 0 mm 2 mps 672 mmHg 64%
    15:00 +2°C° 0 mm 2 mps 671 mmHg 66%
    16:00 +2°C° 0 mm 2 mps 671 mmHg 67%
    17:00 -1°C° 0 mm 2 mps 671 mmHg 72%
    18:00 -2°C° 0 mm 3 mps 670 mmHg 78%
    19:00 -4°C° 0 mm 3 mps 670 mmHg 83%
    20:00 -4°C° 0 mm 3 mps 670 mmHg 83%
    21:00 -4°C° 0 mm 3 mps 670 mmHg 82%
    22:00 -3°C° 0 mm 4 mps 669 mmHg 82%
    23:00 -4°C° 0 mm 5 mps 669 mmHg 82%

    28 February, Friday

    Time Temperature Precipitation Wind Pressure Humidity
    00:00 -4°C° 0 mm 6 mps 668 mmHg 82%
    01:00 -3°C° 0 mm 7 mps 668 mmHg 82%
    02:00 -3°C° 0.1 mm 6 mps 667 mmHg 85%
    03:00 -2°C° 0.1 mm 5 mps 667 mmHg 88%
    04:00 -2°C° 0.1 mm 4 mps 667 mmHg 91%
    05:00 -1°C° 1.2 mm 3 mps 667 mmHg 93%
    06:00 -1°C° 1.2 mm 3 mps 667 mmHg 95%
    07:00 -1°C° 1.2 mm 2 mps 668 mmHg 96%
    08:00 +1°C° 0.9 mm 2 mps 669 mmHg 88%
    09:00 +1°C° 0.9 mm 3 mps 670 mmHg 80%
    10:00 +1°C° 0.9 mm 3 mps 671 mmHg 72%
    11:00 +1°C° 0 mm 3 mps 672 mmHg 70%
    12:00 0°C° 0 mm 4 mps 673 mmHg 67%
    13:00 0°C° 0 mm 4 mps 673 mmHg 64%
    14:00 0°C° 0.1 mm 4 mps 674 mmHg 67%
    15:00 +1°C° 0.1 mm 3 mps 674 mmHg 69%
    16:00 0°C° 0.1 mm 3 mps 674 mmHg 72%
    17:00 -1°C° 0 mm 2 mps 675 mmHg 73%
    18:00 -1°C° 0 mm 1 mps 675 mmHg 74%
    19:00 -2°C° 0 mm 1 mps 675 mmHg 75%
    20:00 -3°C° 0 mm 1 mps 676 mmHg 74%
    21:00 -3°C° 0 mm 1 mps 676 mmHg 73%
    22:00 -4°C° 0 mm 0 mps 676 mmHg 72%
    23:00 -3°C° 0 mm 1 mps 676 mmHg 72%

    29 February, Saturday

    Time Temperature Precipitation Wind Pressure Humidity
    00:00 -3°C° 0 mm 1 mps 676 mmHg 72%
    01:00 -3°C° 0 mm 1 mps 676 mmHg 72%
    02:00 -3°C° 0 mm 1 mps 676 mmHg 72%
    03:00 -3°C° 0 mm 1 mps 676 mmHg 72%
    04:00 -3°C° 0 mm 1 mps 675 mmHg 72%
    05:00 -3°C° 0 mm 1 mps 675 mmHg 70%
    06:00 -5°C° 0 mm 2 mps 675 mmHg 69%
    07:00 -5°C° 0 mm 2 mps 675 mmHg 68%
    08:00 -3°C° 0 mm 2 mps 676 mmHg 64%
    09:00 +1°C° 0 mm 2 mps 676 mmHg 61%
    10:00 +3°C° 0 mm 2 mps 676 mmHg 58%
    11:00 +4°C° 0 mm 2 mps 676 mmHg 58%
    12:00 +4°C° 0 mm 2 mps 676 mmHg 57%
    13:00 +5°C° 0 mm 2 mps 676 mmHg 57%
    14:00 +5°C° 0 mm 2 mps 675 mmHg 61%
    15:00 +4°C° 0 mm 2 mps 675 mmHg 65%
    16:00 +4°C° 0 mm 2 mps 674 mmHg 69%
    17:00 +2°C° 0 mm 2 mps 674 mmHg 72%
    18:00 +1°C° 0 mm 2 mps 674 mmHg 74%
    19:00 -2°C° 0 mm 2 mps 674 mmHg 77%
    20:00 -1°C° 0 mm 3 mps 674 mmHg 76%
    21:00 -1°C° 0 mm 3 mps 674 mmHg 75%
    22:00 -1°C° 0 mm 3 mps 674 mmHg 74%
    23:00 -1°C° 0 mm 3 mps 673 mmHg 76%

    1 March, Sunday

    Time Temperature Precipitation Wind Pressure Humidity
    00:00 -1°C° 0 mm 3 mps 673 mmHg 77%
    01:00 -1°C° 0 mm 3 mps 673 mmHg 78%
    02:00 0°C° 0 mm 3 mps 672 mmHg 81%
    03:00 0°C° 0 mm 3 mps 672 mmHg 83%
    04:00 +1°C° 0 mm 3 mps 672 mmHg 85%
    05:00 +1°C° 0 mm 3 mps 672 mmHg 87%
    06:00 +1°C° 0 mm 3 mps 672 mmHg 89%
    07:00 +2°C° 0 mm 3 mps 672 mmHg 92%
    08:00 +2°C° 0 mm 3 mps 672 mmHg 90%
    09:00 +3°C° 0 mm 3 mps 672 mmHg 89%
    10:00 +4°C° 0 mm 3 mps 672 mmHg 88%
    11:00 +5°C° 0 mm 3 mps 671 mmHg 87%
    12:00 +5°C° 0 mm 3 mps 671 mmHg 86%
    13:00 +5°C° 0 mm 4 mps 671 mmHg 85%
    14:00 +5°C° 0.2 mm 3 mps 670 mmHg 88%
    15:00 +4°C° 0.2 mm 3 mps 670 mmHg 90%
    16:00 +4°C° 0.2 mm 3 mps 669 mmHg 93%
    17:00 +4°C° 0.6 mm 3 mps 669 mmHg 94%
    18:00 +4°C° 0.6 mm 2 mps 669 mmHg 95%
    19:00 +4°C° 0.6 mm 2 mps 668 mmHg 96%
    20:00 +4°C° 0.5 mm 2 mps 669 mmHg 96%
    21:00 +4°C° 0.5 mm 2 mps 669 mmHg 96%
    22:00 +4°C° 0.5 mm 2 mps 669 mmHg 96%
    23:00 +4°C° 0.1 mm 2 mps 669 mmHg 95%
    Show more